CAPE
970 1087 1329 1466 1464 1402 1262 1344 1314 1354 1486 1617 1646 1598 1526 1489 1428 1333 1233 1282 1329 1406 1082 936 1436 1258 906 908 777 736 823 733 651 629 650 587 474 350 368 374 482 289 672
990 1210 1320 1545 1562 1408 1304 1466 1450 1483 1570 1641 1641 1608 1529 1448 1362 1262 1314 1384 1394 1402 945 1018 1510 1305 866 848 911 755 648 515 485 529 557 417 387 384 390 339 499 421 624
1250 1331 1326 1495 1646 1623 1491 1603 1689 1669 1687 1625 1588 1540 1471 1384 1310 1269 1302 1362 1346 1347 1139 1043 1007 1009 881 863 748 664 560 437 342 252 92 42 104 275 293 374 495 388 435
1372 1402 1337 1512 1647 1744 1657 1668 1750 1842 1779 1673 1565 1491 1393 1350 1303 1274 1301 1296 1313 1329 1193 1138 1107 929 717 698 525 387 349 229 138 48 0 7 24 95 56 50 107 197 243
1349 1484 1380 1534 1603 1742 1729 1727 1771 1784 1724 1604 1527 1519 1382 1267 1251 1345 1300 1247 1304 1318 1194 1045 894 733 600 391 310 255 147 61 16 0 0 12 11 34 31 20 13 13 13
1135 1553 1570 1485 1532 1764 1785 1764 1743 1756 1545 1504 1473 1463 1505 1623 1573 1490 1303 1248 1240 1165 1267 1069 680 462 390 291 144 85 37 0 0 0 0 9 11 26 11 13 20 20 16
1178 1393 1681 1506 1512 1729 1844 1795 1681 1690 1511 1382 1419 1438 1636 1701 1697 1563 1350 1354 1249 1161 1195 944 608 365 348 144 66 17 0 0 0 0 0 3 2 13 10 14 14 12 11
1261 1241 1477 1674 1512 1638 1719 1410 1393 1534 1488 1392 1469 1547 1638 1574 1494 1394 1319 1140 978 914 707 544 323 296 119 50 6 0 0 0 0 0 0 0 22 14 20 15 8 15 13
1088 1183 1319 1654 1855 1527 1482 1316 976 881 910 1086 977 704 849 923 1154 1157 1202 1075 948 657 517 358 257 43 89 23 0 0 0 0 0 0 0 11 22 30 18 13 7 10 9
1018 1090 1296 1420 1085 892 1048 1091 853 479 141 85 183 299 282 245 517 765 809 886 745 531 386 222 45 22 64 0 0 0 0 0 0 0 0 14 27 25 25 21 18 18 16
873 932 930 1008 864 832 918 975 979 620 287 23 139 180 140 13 172 304 428 401 474 250 209 80 10 28 18 0 0 0 0 0 0 0 0 34 29 29 28 23 23 15 12
625 708 645 738 661 633 627 632 766 617 369 111 74 100 54 21 113 106 242 304 249 177 108 34 9 14 0 0 0 0 0 0 0 0 1 39 27 26 24 21 11 12 15
616 545 363 544 656 712 570 381 639 526 306 117 137 51 22 14 103 95 136 146 118 90 5 0 0 0 0 0 0 0 0 0 0 0 8 36 32 24 22 20 16 11 4
499 191 247 549 893 498 389 404 593 534 394 151 109 54 38 0 44 100 112 61 45 35 0 0 0 0 0 0 0 0 0 0 0 0 10 31 32 18 23 22 14 9 10
199 215 239 417 613 239 270 294 268 299 191 142 90 48 35 23 74 82 72 47 19 15 1 0 0 0 0 0 0 0 0 0 0 0 1 22 29 30 22 17 12 10 7
254 172 152 133 129 181 206 159 52 41 58 43 43 70 55 43 89 44 64 22 0 8 0 0 0 0 0 0 0 0 0 0 0 0 0 4 18 31 24 11 9 8 11
211 98 82 74 88 151 161 67 31 19 31 35 53 55 55 96 84 42 17 0 0 0 0 0 0 0 0 0 0 0 0 0 0 0 0 0 1 6 19 15 5 5 6
160 83 70 76 165 84 116 83 26 238 3 7 19 41 16 85 44 24 2 0 0 0 0 0 0 0 0 0 0 0 0 0 0 0 0 0 0 0 1 7 11 5 3
129 37 20 33 53 33 94 49 3 3 1 61 4 28 12 25 17 44 8 0 0 0 0 0 0 0 0 3 0 0 0 0 0 0 0 0 0 0 0 0 1 3 6
72 26 0 237 23 41 64 23 4 76 4 29 13 45 29 42 57 44 18 0 0 0 1 0 0 0 6 4 1 0 2 0 0 0 0 0 0 0 0 0 0 0 0
60 27 0 91 244 238 43 11 14 24 0 8 5 32 35 60 61 64 15 6 1 0 0 0 0 5 0 1 7 5 6 4 6 4 0 0 0 0 0 0 0 0 0
63 22 0 19 61 36 9 1 9 7 2 19 12 47 37 17 57 57 59 1 0 0 0 0 0 0 0 0 0 1 9 10 10 14 8 0 0 0 0 0 0 0 0
71 36 3 0 15 51 10 24 0 52 8 3 10 31 32 22 60 66 34 7 3 7 0 1 1 0 0 0 10 6 17 9 26 20 3 0 0 0 0 0 0 0 0
75 42 6 0 0 1 6 7 5 5 4 5 8 32 10 13 37 17 39 26 1 5 12 25 20 6 2 4 6 30 28 15 0 4 29 30 25 2 0 0 0 0 0
72 47 15 0 0 0 2 19 19 48 5 13 18 22 3 17 22 28 12 15 2 3 17 65 87 45 23 22 22 12 4 5 8 0 0 1 18 12 7 4 0 0 4
81 59 22 0 0 1 2 1 1 0 0 0 0 0 5 1 10 15 14 32 6 5 43 37 66 71 60 33 39 28 18 9 0 0 0 4 2 2 3 0 0 0 3
CIN
-240 -206 -124 -75 -58 -41 -50 -66 -81 -33 -24 -28 -23 -17 -12 -14 -7 -1 -0 0 -0 0 -0 -0 0 0 0 0 0 0 0 0 0 0 0 0 0 0 0 0 0 -0 0
-251 -195 -150 -91 -57 -53 -46 -44 -60 -44 -11 -14 -17 -15 -15 -13 -7 -2 0 0 0 0 -0 0 0 0 0 0 0 0 0 0 -0 0 0 -1 0 0 0 0 0 -0 0
-216 -177 -157 -110 -67 -43 -33 -21 -29 -27 -13 -10 -10 -9 -7 -8 -8 -4 -0 0 0 0 0 0 0 0 0 0 0 0 0 -2 -4 -15 -61 -86 -36 -1 -3 -1 0 0 0
-204 -168 -157 -107 -65 -32 -34 -16 -14 -11 -9 -17 -17 -11 -10 -10 -7 -3 -0 -0 -0 0 0 -0 0 0 0 0 0 -5 -13 -31 -85 -148 -95 -55 -187 -58 -81 -33 -37 -6 0
-192 -151 -150 -110 -87 -47 -24 -11 -5 -8 -9 -4 -13 -9 -9 -5 -1 0 -0 -0 0 0 0 0 0 0 0 -12 -35 -40 -66 -122 -195 0 0 -18 -12 -206 -1 -1 -4 -6 -7
-230 -140 -124 -117 -89 -43 -27 -10 -0 -1 -12 -19 -6 -2 0 0 0 0 -0 -0 0 0 0 0 0 -8 -16 -51 -91 -124 -135 -6 0 0 0 -17 -7 0 -0 0 -0 -0 -2
-168 -156 -75 -81 -60 -31 -11 -5 -2 -0 -6 -17 -18 -6 0 0 0 -0 -1 -0 -0 0 -0 0 0 -26 -27 -88 -112 -172 0 0 0 0 0 0 0 -0 0 0 -0 0 -0
-136 -135 -68 -23 -20 -13 -1 -25 -26 -14 -0 -1 -1 -0 0 -0 -0 -0 -0 -0 -0 -1 -0 0 -1 -24 -74 -135 -182 -114 0 0 0 0 0 0 -0 -0 0 0 -0 -0 -0
-148 -115 -69 -15 -1 0 -18 -24 -33 -31 -16 -1 -2 -2 -2 -3 -1 -1 -0 -1 -1 -3 0 -0 0 -96 -92 -139 0 0 0 0 0 0 0 -7 -1 0 0 0 -0 -0 0
-138 -106 -40 -15 -20 -16 -16 -16 -18 -2 -30 -1 -10 -9 -14 -23 -5 -8 -4 -1 -2 -0 0 -1 -59 -156 -78 0 0 0 0 0 0 0 0 -7 -2 -0 0 0 0 -0 -0
-159 -119 -70 -28 -20 -14 -22 -16 -6 -2 -4 -46 -58 -7 -21 -28 -6 -7 -9 -8 -18 -23 -3 -27 -135 -144 -170 0 0 0 0 0 0 0 0 -3 -0 0 -0 0 0 -0 -0
-199 -153 -111 -51 -30 -17 -17 -3 -12 -3 -1 -18 -25 -10 -23 -54 -32 -7 -18 -13 -12 -24 -14 -45 -37 -87 0 0 0 0 0 0 0 0 -1 -2 -0 0 -0 -0 0 -0 -0
-186 -147 -158 -91 -39 -4 -8 -28 0 -1 -9 -19 -14 -5 0 -53 -0 -6 -18 -18 -17 -10 -70 -2 -5 0 0 0 0 0 0 0 0 0 -8 -3 -0 0 0 0 0 0 -0
-211 -242 -197 -84 -16 -42 -44 -5 0 0 -0 -7 -2 -17 -8 -1 -76 -2 -7 -13 -21 -15 0 0 0 0 0 0 0 0 0 0 0 0 -8 -6 -1 0 0 0 0 0 0
-276 -237 -200 -109 -49 -119 -70 -21 -2 -0 -0 -7 -13 -7 -5 -37 -2 -0 -17 -23 -74 -59 -24 0 0 0 0 0 0 0 0 0 0 0 -2 -8 -5 -0 0 0 0 0 0
-270 -263 -241 -205 -181 -133 -84 -49 -56 -22 -14 -12 -5 -3 -2 -20 -1 -18 -6 -31 0 -94 0 0 0 0 0 0 0 0 0 0 0 0 0 -7 -10 -2 -0 0 0 0 0
-296 -330 -287 -246 -216 -163 -127 -145 -87 -18 -16 -1 -0 -0 -4 -2 -0 -19 -25 0 0 0 0 0 0 0 0 0 0 0 0 0 0 0 0 0 -8 -16 -5 -0 0 0 0
-322 -338 -294 -236 -167 -208 -172 -127 -90 -4 -1 -12 -3 -0 0 0 -8 -41 -52 0 0 0 0 0 0 0 0 0 0 0 0 0 0 0 0 0 0 0 -7 -5 -0 0 0
-337 -331 -340 -269 -214 -257 -169 -176 -5 -6 0 -8 -6 0 0 0 -7 -17 -55 0 0 0 0 0 0 0 0 -128 -4 0 0 0 0 0 0 0 0 0 0 0 -4 -5 -1
-358 -241 0 -160 -266 -199 -171 -190 -4 -15 0 -0 -22 -3 0 -3 -10 -7 -8 0 0 0 -0 0 0 -9 -118 -124 -14 0 -48 0 0 0 0 0 0 0 0 0 0 0 -1
-318 -239 0 -234 -129 -93 -184 -153 0 -81 0 -2 -4 -11 -11 0 -2 -8 -4 -4 -2 0 0 -0 0 -62 0 -5 -8 -6 -3 -0 -1 -2 0 0 0 0 0 0 0 0 0
-301 -29 -0 -302 -191 -176 -16 0 -0 0 0 -14 -10 0 -2 -7 0 -3 -3 0 -0 0 0 0 0 -20 0 0 -0 -0 -9 -15 0 -1 -2 0 0 0 0 0 0 0 0
-193 -39 -108 0 -181 -166 -8 -175 0 -86 -2 -0 -13 -0 -3 -16 -0 0 -3 0 0 -1 -34 -62 -93 0 0 0 -48 -18 -11 -12 -15 -1 -2 0 0 0 0 0 0 0 0
-50 -50 -86 0 0 0 -5 -180 -70 -1 -0 0 -8 0 -0 -8 -2 0 -3 -4 -0 0 -102 -23 -43 -50 -40 -32 -18 -9 -6 -69 0 -3 -23 -21 -40 -32 0 0 0 0 0
-73 -47 -105 0 0 0 -0 -219 -182 -100 0 -0 0 0 -0 0 -1 -2 0 -3 0 -10 -87 -5 -5 -5 -21 -26 -26 -23 -2 -19 -41 0 0 -41 -60 -88 -120 -118 0 0 -99
-52 -50 -107 0 0 -0 -0 0 0 0 0 0 0 0 0 -1 -1 0 0 -0 -2 -6 -33 -38 -21 -3 -3 -2 -22 -20 -33 -19 0 0 0 -29 -10 -8 -52 0 0 0 -23
Wind_Speed
25 31 33 30 32 33 34 40 44 47 50 56 59 57 56 54 51 48 44 42 42 41 41 40 39 37 36 38 41 40 43 43 42 39 40 39 37 36 36 33 32 29 33
33 30 33 33 35 37 37 38 39 39 40 46 54 56 57 54 51 49 46 42 41 42 41 39 39 38 38 39 40 40 43 42 41 39 39 37 36 37 33 35 35 30 30
35 31 32 35 38 39 38 40 43 40 42 40 43 49 51 52 51 48 46 44 41 40 41 41 40 39 41 40 40 42 42 39 37 37 nan nan 25 34 33 37 34 30 30
29 30 32 37 39 40 41 42 42 43 40 39 40 38 43 48 49 47 44 42 41 41 39 39 39 40 41 41 41 43 42 39 36 nan nan nan nan nan nan nan 33 26 27
28 31 28 37 39 42 43 40 40 42 42 40 38 40 39 42 47 47 43 41 39 41 39 37 37 39 40 39 42 41 40 nan nan nan nan nan nan nan nan nan nan nan nan
30 27 28 35 37 39 41 39 36 39 44 43 41 39 41 38 40 43 43 43 39 38 41 41 39 36 41 40 41 nan nan nan nan nan nan nan nan nan nan nan nan nan nan
30 26 25 28 34 37 38 37 38 39 42 45 43 41 43 42 37 35 38 40 39 40 42 45 41 38 39 38 nan nan nan nan nan nan nan nan nan nan nan nan nan nan nan
31 29 26 24 32 35 36 34 35 38 41 42 40 45 36 49 41 37 36 37 38 42 45 42 39 38 35 nan nan nan nan nan nan nan nan nan nan nan nan nan nan nan nan
35 32 25 27 32 25 27 29 26 31 32 47 30 35 27 49 42 32 29 32 41 44 43 38 38 nan nan nan nan nan nan nan nan nan nan nan nan nan nan nan nan nan nan
34 32 29 32 31 29 28 28 37 48 48 nan 44 36 30 43 28 37 27 28 35 40 44 40 nan nan nan nan nan nan nan nan nan nan nan nan nan nan nan nan nan nan nan
31 32 29 27 27 28 28 29 35 41 37 nan 38 29 35 nan 38 32 29 26 33 37 34 nan nan nan nan nan nan nan nan nan nan nan nan nan nan nan nan nan nan nan nan
26 26 22 20 23 24 24 28 27 30 29 30 nan 35 nan nan 34 27 21 27 31 32 36 nan nan nan nan nan nan nan nan nan nan nan nan nan nan nan nan nan nan nan nan
27 21 16 18 22 26 23 25 23 26 29 28 27 nan nan nan 36 nan 25 25 24 nan nan nan nan nan nan nan nan nan nan nan nan nan nan nan nan nan nan nan nan nan nan
24 18 16 19 21 23 26 26 26 25 26 22 23 nan nan nan nan 25 30 nan nan nan nan nan nan nan nan nan nan nan nan nan nan nan nan nan nan nan nan nan nan nan nan
22 16 16 21 21 22 28 28 25 23 23 21 nan nan nan nan nan nan nan nan nan nan nan nan nan nan nan nan nan nan nan nan nan nan nan nan nan nan nan nan nan nan nan
22 20 19 20 23 23 26 29 nan nan nan nan nan nan nan nan nan nan nan nan nan nan nan nan nan nan nan nan nan nan nan nan nan nan nan nan nan nan nan nan nan nan nan
20 nan nan nan nan 23 24 nan nan nan nan nan nan nan nan nan nan nan nan nan nan nan nan nan nan nan nan nan nan nan nan nan nan nan nan nan nan nan nan nan nan nan nan
24 nan nan nan 21 nan 21 nan nan 21 nan nan nan nan nan nan nan nan nan nan nan nan nan nan nan nan nan nan nan nan nan nan nan nan nan nan nan nan nan nan nan nan nan
26 nan nan nan nan nan nan nan nan nan nan nan nan nan nan nan nan nan nan nan nan nan nan nan nan nan nan nan nan nan nan nan nan nan nan nan nan nan nan nan nan nan nan
nan nan nan 18 nan nan nan nan nan nan nan nan nan nan nan nan nan nan nan nan nan nan nan nan nan nan nan nan nan nan nan nan nan nan nan nan nan nan nan nan nan nan nan
nan nan nan nan 18 17 nan nan nan nan nan nan nan nan nan nan nan nan nan nan nan nan nan nan nan nan nan nan nan nan nan nan nan nan nan nan nan nan nan nan nan nan nan
nan nan nan nan nan nan nan nan nan nan nan nan nan nan nan nan nan nan nan nan nan nan nan nan nan nan nan nan nan nan nan nan nan nan nan nan nan nan nan nan nan nan nan
nan nan nan nan nan nan nan nan nan nan nan nan nan nan nan nan nan nan nan nan nan nan nan nan nan nan nan nan nan nan nan nan nan nan nan nan nan nan nan nan nan nan nan
nan nan nan nan nan nan nan nan nan nan nan nan nan nan nan nan nan nan nan nan nan nan nan nan nan nan nan nan nan nan nan nan nan nan nan nan nan nan nan nan nan nan nan
nan nan nan nan nan nan nan nan nan nan nan nan nan nan nan nan nan nan nan nan nan nan nan nan nan nan nan nan nan nan nan nan nan nan nan nan nan nan nan nan nan nan nan
nan nan nan nan nan nan nan nan nan nan nan nan nan nan nan nan nan nan nan nan nan nan nan nan nan nan nan nan nan nan nan nan nan nan nan nan nan nan nan nan nan nan nan
Wind_Direction
301 295 298 293 292 292 293 292 289 282 280 280 282 284 284 281 278 276 272 270 268 269 271 270 271 274 273 272 272 273 271 269 266 265 267 270 271 272 269 271 273 272 274
300 294 298 297 295 295 294 292 293 294 294 289 284 283 282 281 279 276 273 270 268 269 273 272 269 275 275 274 273 272 268 263 262 264 268 268 272 274 276 273 273 274 272
295 299 300 299 300 301 301 297 294 293 297 296 291 287 284 282 280 278 278 273 269 268 272 273 273 273 275 271 270 270 263 261 261 261 nan nan 265 273 279 281 277 271 272
291 298 298 303 306 305 305 303 296 296 296 297 296 293 291 284 279 277 274 273 270 270 270 270 272 273 273 268 265 266 263 262 259 nan nan nan nan nan nan nan 272 273 272
287 299 297 308 311 311 306 302 299 294 292 289 289 293 291 292 287 283 277 272 273 272 271 271 270 271 268 268 263 263 259 nan nan nan nan nan nan nan nan nan nan nan nan
282 291 301 313 314 316 312 306 301 296 287 286 288 289 290 291 294 288 284 280 274 270 273 272 269 268 265 260 261 nan nan nan nan nan nan nan nan nan nan nan nan nan nan
280 286 293 306 311 315 316 312 303 295 294 289 289 291 291 289 289 289 288 283 277 270 267 269 271 265 269 260 nan nan nan nan nan nan nan nan nan nan nan nan nan nan nan
280 281 282 300 312 318 313 316 311 303 295 285 284 285 273 288 284 282 281 275 268 261 262 266 269 265 262 nan nan nan nan nan nan nan nan nan nan nan nan nan nan nan nan
277 280 285 297 306 302 306 309 304 292 301 260 242 279 258 268 275 277 276 278 272 260 256 261 264 nan nan nan nan nan nan nan nan nan nan nan nan nan nan nan nan nan nan
276 283 291 289 288 285 292 295 287 281 276 nan 246 227 293 258 255 265 259 273 269 266 255 256 nan nan nan nan nan nan nan nan nan nan nan nan nan nan nan nan nan nan nan
275 283 284 293 291 282 281 287 290 294 296 nan 282 249 252 nan 245 253 259 272 263 271 258 nan nan nan nan nan nan nan nan nan nan nan nan nan nan nan nan nan nan nan nan
291 289 295 298 295 290 290 281 285 289 287 269 nan 273 nan nan 232 227 246 266 262 262 259 nan nan nan nan nan nan nan nan nan nan nan nan nan nan nan nan nan nan nan nan
295 286 291 296 304 304 303 289 278 279 281 264 262 nan nan nan 229 nan 222 231 251 nan nan nan nan nan nan nan nan nan nan nan nan nan nan nan nan nan nan nan nan nan nan
297 294 295 302 307 311 307 302 286 278 282 255 249 nan nan nan nan 227 213 nan nan nan nan nan nan nan nan nan nan nan nan nan nan nan nan nan nan nan nan nan nan nan nan
300 299 309 304 314 311 308 304 291 286 280 261 nan nan nan nan nan nan nan nan nan nan nan nan nan nan nan nan nan nan nan nan nan nan nan nan nan nan nan nan nan nan nan
308 310 306 308 309 310 307 300 nan nan nan nan nan nan nan nan nan nan nan nan nan nan nan nan nan nan nan nan nan nan nan nan nan nan nan nan nan nan nan nan nan nan nan
322 nan nan nan nan 306 308 nan nan nan nan nan nan nan nan nan nan nan nan nan nan nan nan nan nan nan nan nan nan nan nan nan nan nan nan nan nan nan nan nan nan nan nan
317 nan nan nan 308 nan 302 nan nan 295 nan nan nan nan nan nan nan nan nan nan nan nan nan nan nan nan nan nan nan nan nan nan nan nan nan nan nan nan nan nan nan nan nan
320 nan nan nan nan nan nan nan nan nan nan nan nan nan nan nan nan nan nan nan nan nan nan nan nan nan nan nan nan nan nan nan nan nan nan nan nan nan nan nan nan nan nan
nan nan nan 306 nan nan nan nan nan nan nan nan nan nan nan nan nan nan nan nan nan nan nan nan nan nan nan nan nan nan nan nan nan nan nan nan nan nan nan nan nan nan nan
nan nan nan nan 305 310 nan nan nan nan nan nan nan nan nan nan nan nan nan nan nan nan nan nan nan nan nan nan nan nan nan nan nan nan nan nan nan nan nan nan nan nan nan
nan nan nan nan nan nan nan nan nan nan nan nan nan nan nan nan nan nan nan nan nan nan nan nan nan nan nan nan nan nan nan nan nan nan nan nan nan nan nan nan nan nan nan
nan nan nan nan nan nan nan nan nan nan nan nan nan nan nan nan nan nan nan nan nan nan nan nan nan nan nan nan nan nan nan nan nan nan nan nan nan nan nan nan nan nan nan
nan nan nan nan nan nan nan nan nan nan nan nan nan nan nan nan nan nan nan nan nan nan nan nan nan nan nan nan nan nan nan nan nan nan nan nan nan nan nan nan nan nan nan
nan nan nan nan nan nan nan nan nan nan nan nan nan nan nan nan nan nan nan nan nan nan nan nan nan nan nan nan nan nan nan nan nan nan nan nan nan nan nan nan nan nan nan
nan nan nan nan nan nan nan nan nan nan nan nan nan nan nan nan nan nan nan nan nan nan nan nan nan nan nan nan nan nan nan nan nan nan nan nan nan nan nan nan nan nan nan